Location: Ago
(8.4667°N, 4.4833°E)
Time: 23:18:26
(UTC+00:00)

YAOGAN 1 - Pass Details

Date: 18 September 2020
Orbit: 618 x 620 km, 97.9° (Epoch: 20 October)

Event Time Altitude Azimuth Distance (km) Brightness Sun altitude
Rises 18:12:03 0° 149° (SSE) 2,888 5.7 -8.7°
Reaches altitude 10° 18:14:26 10° 138° (SE) 1,982 4.7 -9.3°
Maximum altitude 18:18:12 30° 77° (ENE) 1,120 3.4 -10.2°
Drops below altitude 10° 18:21:57 10° 16° (NNE) 1,979 5.0 -11.1°
Sets 18:24:20 0° 5° (N) 2,884 6.0 -11.7°
